CW7412 Weather Reports


Display with metric or nautical units.
time (UTC)temp
F
wind
direction
speed
MPH
gust
MPH
rain 1hr
in
rain 24hr
in
rain mn
in
humidity
%
barometer
mb
20260503191204 65 270 4.0 6.0 0.00 0.00 0.00 30 1018.7
20260503190704 64 305 5.0 7.0 0.00 0.00 0.00 32 1018.7
20260503184704 63 60 3.0 7.0 0.00 0.00 0.00 31 1019.2
20260503183704 64 281 4.0 8.0 0.00 0.00 0.00 32 1019.3
20260503180704 62 100 5.0 7.0 0.00 0.00 0.00 31 1019.5
20260503180204 62 208 3.0 6.0 0.00 0.00 0.00 31 1019.5
20260503173204 61 45 4.0 7.0 0.00 0.00 0.00 32 1020.0
20260503171704 60 147 3.0 6.0 0.00 0.00 0.00 34 1020.2
20260503150704 56 222 2.0 5.0 0.00 0.00 0.00 41 1021.3
20260503131204 47 112 1.0 2.0 0.00 0.00 0.00 74 1021.5
20260503130703 46 156 2.0 2.0 0.00 0.00 0.00 74 1021.5
20260503110704 33 112 0.0 0.0 0.00 0.00 0.00 95 1020.3
20260503110204 33 292 0.0 0.0 0.00 0.00 0.00 95 1020.3
20260503100204 34 227 0.0 0.0 0.00 0.00 0.00 95 1019.7
20260503081204 38 226 0.0 0.0 0.00 0.00 0.00 87 1019.3
20260503080704 37 202 0.0 0.0 0.00 0.00 0.00 88 1019.3
20260503080204 37 286 0.0 0.0 0.00 0.00 0.00 88 1019.3
20260503071704 38 90 0.0 0.0 0.00 0.00 0.00 90 1018.8
20260503071204 38 76 0.0 0.0 0.00 0.00 0.00 91 1018.8
20260503070204 37 251 0.0 0.0 0.00 0.00 0.00 92 1018.8
20260503060204 38 258 0.0 0.0 0.00 0.00 0.00 89 1018.6
20260503054204 39 250 0.0 0.0 0.00 0.00 0.00 87 1018.6
20260503051204 40 281 0.0 0.0 0.00 0.00 0.00 89 1018.5
20260503050204 40 257 0.0 0.0 0.00 0.00 0.00 88 1018.5
20260503043704 41 262 0.0 0.0 0.00 0.00 0.00 86 1018.3
20260503040704 42 279 0.0 0.0 0.00 0.00 0.00 83 1018.1
20260503033704 44 222 0.0 0.0 0.00 0.00 0.00 80 1018.0
20260503031204 45 270 0.0 0.0 0.00 0.00 0.00 80 1018.0
20260503030704 45 270 0.0 0.0 0.00 0.00 0.00 80 1018.0
20260503023205 46 258 0.0 0.0 0.00 0.00 0.00 80 1017.8
20260503021704 46 257 0.0 0.0 0.00 0.00 0.00 78 1017.8
20260503021204 46 253 0.0 0.0 0.00 0.00 0.00 79 1017.7
20260503014204 47 112 0.0 0.0 0.00 0.00 0.00 73 1017.3
20260503011704 48 203 0.0 0.0 0.00 0.00 0.00 75 1017.1
20260503011204 48 268 0.0 0.0 0.00 0.00 0.00 74 1017.1
20260503010204 48 261 0.0 0.0 0.00 0.00 0.00 73 1017.1
20260503004204 49 283 0.0 0.0 0.00 0.00 0.00 68 1016.6
20260503003204 49 266 0.0 0.0 0.00 0.00 0.00 66 1016.6
20260503001704 51 261 0.0 0.0 0.00 0.00 0.00 63 1016.3
20260503000704 53 225 0.0 0.0 0.00 0.00 0.00 59 1016.3
20260503000204 52 238 0.0 0.0 0.00 0.00 0.00 61 1016.3
20260502234203 58 258 0.0 0.0 0.00 0.00 0.00 49 1016.2
20260502231704 56 151 0.0 0.0 0.00 0.00 0.00 52 1016.0
20260502231204 57 218 0.0 2.0 0.00 0.00 0.00 53 1015.8
20260502224704 57 2 3.0 5.0 0.00 0.00 0.00 49 1015.8
20260502224204 57 114 3.0 5.0 0.00 0.00 0.00 48 1015.8
20260502223704 58 284 1.0 2.0 0.00 0.00 0.00 48 1015.9
20260502223204 59 262 2.0 3.0 0.00 0.00 0.00 49 1016.0
20260502221204 55 303 0.0 5.0 0.00 0.00 0.00 57 1016.0
20260502220704 54 223 2.0 5.0 0.00 0.00 0.00 56 1016.0
20260502214704 54 269 2.0 3.0 0.00 0.00 0.00 56 1015.8
20260502214204 54 279 0.0 2.0 0.00 0.00 0.00 54 1015.8
20260502211203 56 269 0.0 2.0 0.00 0.00 0.00 50 1015.6
20260502210704 56 259 2.0 3.0 0.00 0.00 0.00 47 1015.6
20260502204204 58 274 3.0 5.0 0.00 0.00 0.00 45 1015.5
20260502201204 56 68 0.0 0.0 0.00 0.00 0.00 48 1015.6
20260502193203 59 238 1.0 3.0 0.00 0.00 0.00 46 1015.7